EJA251 MMSD-KVNY

Flight info

Callsign EJA251
Flight time N/A
Altitude 38000
Route SJD3A SJD DCT AXASA DCT ASUTA DCT AMMOR THRNE4
Aircraft E35L/M-SDFGIRWXY/SB1

Departure

Time 2026-05-06 04:41
Airport Los Cabos International Airport (MMSD)

Arrival

Time N/A
Airport Van Nuys Airport (KVNY)
Time Latitude Longitude Altitude Speed Heading
2026-05-06 04:25 23.16482 -109.71852 362 ft 0 kts 355°
2026-05-06 04:33 23.16483 -109.71852 364 ft 0 kts 355°
2026-05-06 04:33 23.16478 -109.71852 365 ft 2 kts
2026-05-06 04:34 23.16463 -109.71856 365 ft 2 kts 29°
2026-05-06 04:34 23.16452 -109.71866 365 ft 2 kts 54°
2026-05-06 04:34 23.16446 -109.71881 365 ft 2 kts 79°
2026-05-06 04:34 23.16444 -109.71897 366 ft 2 kts 86°
2026-05-06 04:35 23.16444 -109.71907 366 ft 0 kts 86°
2026-05-06 04:37 23.16444 -109.71906 366 ft 0 kts 77°
2026-05-06 04:37 23.16449 -109.71906 366 ft 0 kts 323°
2026-05-06 04:37 23.16483 -109.71918 366 ft 9 kts 354°
2026-05-06 04:37 23.16563 -109.71926 365 ft 13 kts 354°
2026-05-06 04:38 23.16646 -109.71935 365 ft 10 kts 353°
2026-05-06 04:38 23.16723 -109.71942 363 ft 10 kts 354°
2026-05-06 04:38 23.16755 -109.71978 363 ft 6 kts 265°
2026-05-06 04:38 23.16735 -109.72022 366 ft 7 kts 202°
2026-05-06 04:39 23.16682 -109.72021 368 ft 7 kts 175°
2026-05-06 04:39 23.16628 -109.72022 369 ft 8 kts 209°
2026-05-06 04:39 23.16610 -109.72073 373 ft 6 kts 264°
2026-05-06 04:39 23.16605 -109.72121 375 ft 7 kts 264°
2026-05-06 04:40 23.16576 -109.72187 379 ft 11 kts 216°
2026-05-06 04:40 23.16496 -109.72225 383 ft 16 kts 176°
2026-05-06 04:40 23.16088 -109.72179 384 ft 105 kts 174°
2026-05-06 04:40 23.15106 -109.72062 491 ft 164 kts 173°
2026-05-06 04:41 23.13852 -109.71912 1043 ft 196 kts 173°
2026-05-06 04:41 23.12363 -109.71703 1517 ft 240 kts 170°
2026-05-06 04:41 23.10636 -109.71387 2444 ft 265 kts 169°
2026-05-06 04:41 23.08807 -109.71063 3860 ft 271 kts 171°
2026-05-06 04:42 23.06993 -109.70750 5453 ft 270 kts 173°
2026-05-06 04:42 23.05206 -109.70891 6901 ft 267 kts 202°
2026-05-06 04:42 23.03722 -109.72007 8267 ft 265 kts 233°
2026-05-06 04:42 23.02990 -109.73809 9480 ft 272 kts 262°
2026-05-06 04:43 23.03203 -109.75845 10570 ft 285 kts 286°
2026-05-06 04:43 23.04044 -109.77853 11601 ft 302 kts 301°
2026-05-06 04:43 23.05572 -109.79481 12577 ft 321 kts 325°
2026-05-06 04:43 23.07575 -109.80617 13531 ft 335 kts 330°
2026-05-06 04:44 23.09738 -109.81759 14463 ft 348 kts 330°
2026-05-06 04:44 23.11952 -109.82909 15428 ft 357 kts 330°
2026-05-06 04:44 23.14214 -109.84084 16444 ft 363 kts 330°
2026-05-06 04:44 23.16515 -109.85278 17389 ft 370 kts 330°
2026-05-06 04:45 23.18839 -109.86485 18286 ft 377 kts 330°
2026-05-06 04:45 23.21240 -109.87731 19294 ft 379 kts 329°
2026-05-06 04:45 23.23641 -109.88979 20226 ft 383 kts 329°
2026-05-06 04:45 23.26054 -109.90234 21068 ft 387 kts 329°
2026-05-06 04:46 23.28520 -109.91516 21923 ft 390 kts 328°
2026-05-06 04:46 23.30959 -109.92785 22757 ft 393 kts 328°
2026-05-06 04:46 23.33468 -109.94091 23448 ft 399 kts 328°
2026-05-06 04:46 23.36061 -109.95441 24149 ft 404 kts 328°
2026-05-06 04:47 23.38651 -109.96791 24835 ft 409 kts 328°
2026-05-06 04:47 23.41242 -109.98141 25576 ft 411 kts 327°
2026-05-06 04:47 23.43866 -109.99509 26377 ft 411 kts 327°
2026-05-06 04:47 23.46457 -110.00860 27267 ft 407 kts 327°
2026-05-06 04:48 23.49049 -110.02213 27984 ft 408 kts 327°
2026-05-06 04:48 23.51613 -110.03552 28689 ft 407 kts 326°
2026-05-06 04:48 23.54220 -110.04912 29473 ft 406 kts 326°
2026-05-06 04:48 23.56816 -110.06271 29506 ft 424 kts 327°
2026-05-06 04:49 23.59536 -110.07693 29554 ft 441 kts 327°
2026-05-06 04:49 23.62361 -110.09167 29998 ft 446 kts 327°
2026-05-06 04:49 23.65151 -110.10626 30730 ft 444 kts 326°
2026-05-06 04:49 23.67914 -110.12071 31547 ft 439 kts 326°
2026-05-06 04:50 23.70662 -110.13511 32206 ft 438 kts 326°
2026-05-06 04:50 23.73404 -110.14948 32860 ft 436 kts 326°
2026-05-06 04:50 23.76116 -110.16370 33579 ft 434 kts 326°
2026-05-06 04:50 23.78837 -110.17797 34279 ft 432 kts 326°
2026-05-06 04:51 23.81533 -110.19211 35067 ft 427 kts 325°
2026-05-06 04:51 23.84221 -110.20622 35841 ft 422 kts 325°
2026-05-06 04:51 23.86852 -110.22005 36485 ft 420 kts 325°
2026-05-06 04:51 23.89454 -110.23372 37094 ft 418 kts 325°
2026-05-06 04:52 23.92084 -110.24755 37585 ft 418 kts 325°
2026-05-06 04:52 23.94693 -110.26128 38045 ft 418 kts 325°
2026-05-06 04:52 23.97324 -110.27512 38055 ft 420 kts 325°
2026-05-06 04:53 24.02590 -110.30285 38063 ft 418 kts 324°
2026-05-06 04:53 24.07841 -110.33052 38061 ft 416 kts 324°
2026-05-06 04:54 24.13040 -110.35794 38047 ft 413 kts 324°
2026-05-06 04:54 24.18197 -110.38517 38047 ft 410 kts 324°
2026-05-06 04:55 24.23329 -110.41229 38036 ft 408 kts 324°
2026-05-06 04:55 24.28458 -110.43942 38026 ft 407 kts 324°
2026-05-06 04:56 24.33523 -110.46623 38027 ft 405 kts 324°
2026-05-06 04:56 24.38600 -110.49314 38026 ft 403 kts 324°
2026-05-06 04:57 24.43661 -110.51998 38025 ft 402 kts 324°
2026-05-06 04:57 24.48696 -110.54671 38028 ft 401 kts 323°
2026-05-06 04:58 24.53696 -110.57327 38028 ft 400 kts 323°
2026-05-06 04:58 24.58720 -110.59999 38033 ft 398 kts 323°
2026-05-06 04:59 24.63703 -110.62652 38040 ft 397 kts 323°
2026-05-06 04:59 24.68673 -110.65299 38052 ft 396 kts 323°
2026-05-06 05:00 24.73654 -110.67955 38064 ft 397 kts 323°
2026-05-06 05:00 24.78635 -110.70614 38066 ft 398 kts 322°
2026-05-06 05:01 24.83620 -110.73276 38069 ft 398 kts 322°
2026-05-06 05:01 24.88637 -110.75958 38070 ft 399 kts 322°
2026-05-06 05:02 24.93622 -110.78626 38068 ft 400 kts 322°
2026-05-06 05:02 24.98626 -110.81306 38073 ft 400 kts 322°
2026-05-06 05:03 25.03654 -110.84002 38077 ft 401 kts 322°
2026-05-06 05:03 25.08684 -110.86701 38071 ft 402 kts 322°
2026-05-06 05:04 25.13703 -110.89397 38074 ft 403 kts 322°
2026-05-06 05:04 25.18782 -110.92127 38064 ft 404 kts 322°
2026-05-06 05:05 25.23830 -110.94844 38059 ft 406 kts 322°
2026-05-06 05:05 25.28959 -110.97606 38059 ft 408 kts 322°
2026-05-06 05:06 25.34093 -111.00374 38059 ft 409 kts 322°
2026-05-06 05:06 25.39225 -111.03142 38055 ft 410 kts 322°
2026-05-06 05:07 25.44327 -111.05898 38053 ft 411 kts 322°
2026-05-06 05:07 25.49491 -111.08691 38060 ft 412 kts 322°
2026-05-06 05:08 25.54672 -111.11494 38064 ft 413 kts 322°
2026-05-06 05:08 25.59854 -111.14301 38069 ft 414 kts 322°
2026-05-06 05:09 25.65035 -111.17110 38066 ft 415 kts 322°
2026-05-06 05:09 25.70234 -111.19932 38055 ft 416 kts 322°
2026-05-06 05:10 25.75437 -111.22759 38054 ft 417 kts 321°
2026-05-06 05:10 25.80640 -111.25588 38054 ft 417 kts 321°
2026-05-06 05:11 25.85876 -111.28438 38063 ft 418 kts 321°
2026-05-06 05:11 25.91136 -111.31304 38063 ft 419 kts 321°
2026-05-06 05:12 25.96361 -111.34154 38072 ft 419 kts 321°
2026-05-06 05:12 26.01642 -111.37038 38074 ft 419 kts 321°
2026-05-06 05:13 26.06913 -111.39919 38079 ft 420 kts 321°
2026-05-06 05:13 26.12198 -111.42809 38066 ft 420 kts 321°
2026-05-06 05:14 26.17442 -111.45681 38059 ft 420 kts 321°
2026-05-06 05:14 26.22692 -111.48559 38046 ft 419 kts 321°
2026-05-06 05:15 26.27932 -111.51434 38043 ft 419 kts 321°
2026-05-06 05:15 26.33157 -111.54305 38046 ft 418 kts 321°
2026-05-06 05:16 26.38396 -111.57185 38045 ft 418 kts 321°
2026-05-06 05:16 26.43649 -111.60076 38053 ft 417 kts 321°
2026-05-06 05:17 26.48866 -111.62951 38051 ft 417 kts 321°
2026-05-06 05:17 26.54070 -111.65821 38071 ft 417 kts 320°
2026-05-06 05:18 26.59309 -111.68713 38072 ft 418 kts 320°
2026-05-06 05:18 26.64506 -111.71586 38076 ft 419 kts 320°
2026-05-06 05:19 26.69749 -111.74486 38068 ft 421 kts 320°
2026-05-06 05:19 26.75008 -111.77398 38079 ft 422 kts 320°
2026-05-06 05:20 26.80308 -111.80336 38077 ft 423 kts 320°
2026-05-06 05:20 26.85601 -111.83274 38070 ft 424 kts 320°
2026-05-06 05:21 26.90916 -111.86227 38064 ft 425 kts 320°
2026-05-06 05:21 26.96273 -111.89206 38057 ft 427 kts 320°
2026-05-06 05:22 27.01610 -111.92178 38057 ft 428 kts 320°
2026-05-06 05:22 27.06956 -111.95156 38055 ft 428 kts 320°
2026-05-06 05:23 27.12326 -111.98152 38034 ft 429 kts 320°
2026-05-06 05:23 27.20317 -112.02616 38049 ft 427 kts 320°
2026-05-06 05:24 27.25652 -112.05601 38042 ft 426 kts 320°
2026-05-06 05:24 27.30939 -112.08561 38043 ft 426 kts 319°
2026-05-06 05:25 27.36228 -112.11526 38053 ft 425 kts 319°
2026-05-06 05:25 27.41543 -112.14510 38054 ft 424 kts 319°
2026-05-06 05:26 27.46835 -112.17483 38054 ft 424 kts 319°
2026-05-06 05:26 27.52104 -112.20446 38063 ft 423 kts 319°
2026-05-06 05:27 27.57348 -112.23399 38056 ft 423 kts 319°
2026-05-06 05:27 27.62615 -112.26367 38066 ft 423 kts 319°
2026-05-06 05:28 27.67855 -112.29324 38060 ft 423 kts 319°
2026-05-06 05:28 27.73137 -112.32308 38063 ft 422 kts 319°
2026-05-06 05:29 27.78386 -112.35276 38071 ft 422 kts 319°
2026-05-06 05:29 27.83654 -112.38258 38075 ft 422 kts 319°
2026-05-06 05:30 27.88924 -112.41245 38084 ft 422 kts 319°
2026-05-06 05:30 27.94183 -112.44228 38080 ft 422 kts 319°
2026-05-06 05:31 27.99427 -112.47207 38085 ft 422 kts 319°
2026-05-06 05:31 28.04698 -112.50204 38081 ft 422 kts 319°
2026-05-06 05:32 28.09930 -112.53181 38085 ft 422 kts 318°
2026-05-06 05:32 28.15185 -112.56177 38065 ft 422 kts 319°
2026-05-06 05:33 28.20409 -112.59156 38059 ft 420 kts 318°
2026-05-06 05:33 28.25610 -112.62126 38066 ft 419 kts 318°
2026-05-06 05:34 28.30833 -112.65113 38061 ft 418 kts 318°
2026-05-06 05:34 28.36009 -112.68075 38087 ft 419 kts 317°
2026-05-06 05:35 28.41227 -112.71066 38087 ft 420 kts 317°
2026-05-06 05:35 28.46447 -112.74060 38074 ft 421 kts 317°
2026-05-06 05:36 28.51694 -112.77073 38085 ft 422 kts 318°
2026-05-06 05:36 28.56920 -112.80077 38082 ft 423 kts 317°
2026-05-06 05:37 28.62198 -112.83115 38086 ft 424 kts 317°
2026-05-06 05:37 28.67455 -112.86144 38081 ft 425 kts 318°
2026-05-06 05:38 28.72722 -112.89182 38077 ft 425 kts 318°
2026-05-06 05:38 28.78003 -112.92232 38071 ft 426 kts 317°
2026-05-06 05:39 28.83314 -112.95303 38083 ft 426 kts 318°
2026-05-06 05:39 28.88596 -112.98360 38073 ft 427 kts 317°
2026-05-06 05:40 28.93887 -113.01426 38076 ft 427 kts 317°
2026-05-06 05:40 28.99181 -113.04498 38076 ft 428 kts 318°
2026-05-06 05:41 29.04507 -113.07591 38080 ft 428 kts 317°
2026-05-06 05:41 29.09830 -113.10686 38077 ft 429 kts 317°
2026-05-06 05:42 29.15152 -113.13785 38063 ft 428 kts 317°
2026-05-06 05:42 29.20428 -113.16860 38057 ft 427 kts 318°
2026-05-06 05:43 29.25750 -113.19965 38058 ft 426 kts 317°
2026-05-06 05:43 29.31047 -113.23061 38059 ft 425 kts 317°
2026-05-06 05:44 29.36315 -113.26141 38055 ft 424 kts 317°
2026-05-06 05:44 29.41596 -113.29235 38061 ft 423 kts 318°
2026-05-06 05:45 29.46805 -113.32288 38066 ft 422 kts 318°
2026-05-06 05:45 29.52052 -113.35368 38067 ft 421 kts 318°
2026-05-06 05:46 29.57276 -113.38438 38063 ft 421 kts 317°
2026-05-06 05:46 29.62475 -113.41497 38061 ft 420 kts 317°
2026-05-06 05:47 29.67668 -113.44556 38056 ft 420 kts 318°
2026-05-06 05:47 29.72859 -113.47618 38051 ft 420 kts 318°
2026-05-06 05:48 29.78057 -113.50687 38050 ft 420 kts 318°
2026-05-06 05:48 29.83265 -113.53765 38040 ft 419 kts 318°
2026-05-06 05:49 29.88456 -113.56838 38041 ft 419 kts 318°
2026-05-06 05:49 29.93621 -113.59898 38046 ft 419 kts 318°
2026-05-06 05:50 29.98794 -113.62966 38040 ft 419 kts 318°
2026-05-06 05:50 30.03731 -113.65899 38060 ft 419 kts 317°